Wind_Speed
42 35 38 40 40 37 36 34 36 40 37 28 30 50 42 61 60 58 56 56 56 52 57 49 48 48 46
47 46 42 33 36 36 33 32 35 36 43 36 20 28 43 51 63 61 58 55 54 59 57 56 51 50 45
43 37 37 38 38 34 28 29 28 28 41 40 29 23 31 52 53 64 60 55 55 58 65 59 52 48 45
38 38 35 32 30 30 27 23 24 30 33 39 40 26 18 51 56 53 57 55 56 56 70 64 53 46 46
36 37 33 28 29 25 25 27 24 24 25 34 39 32 19 27 48 58 60 58 60 60 61 57 53 50 47
35 35 30 27 28 24 24 24 25 21 22 27 32 38 24 14 22 47 62 62 65 64 60 59 58 56 51
44 43 41 36 30 29 28 26 28 24 25 29 25 38 37 22 18 35 59 68 66 65 61 59 60 60 55
41 41 37 31 34 33 33 32 32 30 29 33 27 33 38 26 24 23 49 61 70 66 60 57 61 67 57
31 32 31 32 33 32 34 31 33 34 29 26 22 22 33 34 28 22 41 53 62 63 60 55 60 62 59
35 32 30 30 29 31 32 34 33 34 21 22 17 9 14 26 27 9 22 48 54 59 58 57 54 76 68
31 31 31 26 24 26 28 29 29 33 29 18 22 22 13 20 24 25 11 6 41 58 61 58 58 60 67
33 28 27 24 22 20 19 20 22 25 18 18 24 20 17 24 32 32 24 17 13 50 61 64 61 57 67
35 35 33 29 25 24 22 23 26 24 20 15 19 19 20 26 28 30 29 26 5 22 41 67 68 64 68
22 31 27 26 23 23 25 23 24 22 23 20 17 19 25 23 22 27 30 29 13 4 21 39 62 73 70
13 9 26 27 27 23 20 22 22 21 21 20 21 23 24 28 32 34 35 35 25 19 9 13 39 64 75
13 15 14 9 12 20 14 16 19 20 20 20 20 22 24 28 31 37 39 32 25 21 13 12 19 43 60
13 13 14 15 17 22 23 23 24 21 19 20 23 25 24 28 30 25 21 20 22 21 16 17 16 21 47
Wind_Direction
282 286 285 290 292 289 289 285 284 274 267 260 231 220 218 217 228 225 222 226 230 226 226 224 222 222 221
279 285 289 292 291 294 291 292 289 278 271 269 268 232 228 222 215 220 220 225 229 227 226 218 217 219 219
277 282 283 288 294 296 294 297 297 290 272 268 274 282 237 220 223 219 219 220 225 229 226 219 214 216 219
272 277 282 287 288 294 296 300 298 291 272 276 266 279 282 226 223 224 218 219 221 226 228 218 213 215 217
267 272 273 276 282 289 288 294 297 301 291 272 266 266 278 235 228 223 223 222 225 226 228 228 224 218 216
262 265 269 273 282 280 286 291 300 300 286 274 263 263 276 261 221 219 228 226 225 224 225 230 230 220 216
263 264 268 268 271 272 281 288 294 292 290 293 274 261 266 283 236 223 219 224 222 220 222 228 228 222 214
256 259 265 270 273 272 275 283 279 280 288 295 288 273 263 275 285 247 218 223 224 218 223 226 228 225 216
263 266 266 262 260 266 266 271 277 280 283 287 279 292 274 265 286 272 215 213 218 217 221 224 220 224 213
266 262 261 262 259 254 258 262 268 281 287 273 289 267 284 272 273 264 234 217 221 222 221 220 224 221 212
266 266 267 264 259 257 253 254 257 256 259 265 268 283 291 272 266 268 318 196 221 227 222 223 223 221 215
260 260 261 262 259 256 250 252 258 263 269 254 259 271 278 273 273 276 285 313 235 215 223 223 224 223 216
259 265 267 267 265 265 261 256 254 259 264 259 257 273 273 277 280 280 289 284 265 201 207 219 220 220 216
283 261 262 264 262 257 256 268 259 266 257 251 264 265 265 269 274 271 270 277 273 331 204 207 218 221 220
274 299 259 262 262 262 255 259 254 253 264 272 279 280 281 280 275 267 265 266 274 279 312 218 203 220 218
301 293 282 259 256 245 252 247 249 254 260 272 278 280 277 271 261 260 260 260 269 269 275 305 225 211 222
318 311 298 283 272 264 267 267 269 264 259 265 267 261 259 261 267 261 268 262 263 267 255 271 292 219 219
Height
1403 1402 1399 1399 1396 1394 1393 1392 1391 1393 1394 1387 1382 1397 1400 1411 1421 1428 1436 1444 1452 1459 1466 1472 1484 1492 1497
1394 1394 1393 1393 1389 1386 1386 1385 1382 1378 1381 1391 1384 1381 1388 1389 1401 1414 1423 1432 1439 1447 1455 1462 1472 1482 1488
1387 1388 1387 1386 1382 1379 1377 1375 1374 1370 1371 1370 1376 1376 1370 1382 1393 1397 1408 1419 1427 1435 1440 1449 1459 1469 1477
1383 1380 1380 1378 1377 1373 1370 1370 1366 1365 1362 1365 1373 1371 1367 1374 1383 1391 1394 1406 1417 1424 1431 1438 1447 1457 1465
1376 1373 1372 1372 1371 1369 1367 1365 1363 1360 1355 1357 1358 1367 1367 1366 1373 1381 1388 1394 1404 1414 1423 1431 1436 1446 1455
1368 1365 1365 1366 1366 1364 1363 1361 1358 1355 1355 1352 1355 1352 1352 1357 1360 1367 1377 1385 1393 1402 1410 1419 1428 1436 1444
1357 1356 1357 1359 1361 1358 1356 1354 1349 1351 1349 1342 1342 1345 1350 1344 1348 1351 1357 1369 1379 1388 1398 1407 1416 1425 1434
1349 1348 1348 1350 1352 1353 1351 1349 1345 1343 1341 1332 1335 1338 1338 1336 1344 1340 1340 1353 1364 1374 1384 1394 1403 1413 1423
1341 1340 1341 1343 1346 1346 1343 1344 1339 1337 1337 1336 1331 1328 1332 1333 1337 1332 1336 1340 1351 1362 1374 1382 1390 1402 1410
1331 1333 1334 1334 1335 1336 1336 1335 1334 1330 1329 1326 1319 1327 1323 1326 1326 1329 1329 1337 1343 1351 1362 1372 1380 1386 1392
1323 1324 1325 1326 1326 1327 1327 1327 1327 1327 1326 1326 1329 1326 1318 1324 1320 1324 1324 1323 1331 1341 1349 1360 1368 1378 1384
1315 1316 1317 1318 1319 1319 1320 1319 1319 1320 1322 1326 1323 1321 1320 1318 1316 1314 1320 1322 1324 1328 1334 1346 1356 1366 1372
1306 1306 1308 1310 1313 1314 1314 1314 1314 1313 1312 1313 1315 1310 1309 1311 1306 1308 1314 1322 1319 1317 1324 1330 1340 1351 1359
1300 1299 1301 1303 1305 1308 1309 1310 1310 1308 1307 1308 1310 1312 1313 1309 1305 1307 1314 1320 1311 1310 1311 1317 1325 1336 1345
1295 1293 1294 1296 1297 1299 1302 1303 1304 1304 1302 1302 1302 1299 1296 1298 1301 1306 1309 1313 1305 1308 1307 1309 1313 1322 1331
1290 1289 1289 1288 1290 1291 1293 1294 1296 1296 1297 1295 1296 1297 1296 1296 1301 1307 1306 1301 1298 1299 1299 1303 1307 1315 1320
1288 1286 1284 1283 1284 1285 1285 1287 1290 1292 1292 1294 1295 1296 1295 1294 1299 1298 1292 1288 1293 1290 1297 1301 1302 1302 1311